Location: Northcutt
(34.7304°N, 84.4305°W)
Time: 17:26:31
(UTC+00:00)

SR - Pass Details

Date: 09 October 2022
Orbit: 577 x 874 km, 66.7° (Epoch: 05 December)

Event Time Altitude Azimuth Distance (km) Brightness Sun altitude
Rises 01:34:49 0° 234° (SW) 3,420 ? -30.0°
Reaches altitude 10° 01:37:34 10° 245° (WSW) 2,506 ? -30.5°
Maximum altitude 01:42:38 30° 305° (NW) 1,527 ? -31.5°
Drops below altitude 10° 01:47:44 10° 5° (N) 2,515 ? -32.5°
Enters shadow 01:49:41 - 14° (NNE) 3,147 ? -32.9°
Sets 01:50:32 0° 17° (NNE) 3,434 - -33.1°
